| time (UTC) | temp F | wind direction | speed MPH | gust MPH | rain 1hr in | rain 24hr in | rain mn in | humidity % | barometer mb |
| 20260510073329 | 75 | 249 | 0.0 | 2.0 | 0.00 | 0.00 | 0.00 | 30 | 1012.3 |
| 20260510072825 | 74 | 259 | 0.0 | 2.0 | 0.00 | 0.00 | 0.00 | 32 | 1012.5 |
| 20260510072322 | 73 | 273 | 3.0 | 3.0 | 0.00 | 0.00 | 0.00 | 32 | 1012.3 |
| 20260510071818 | 73 | 258 | 0.0 | 2.0 | 0.00 | 0.00 | 0.00 | 31 | 1012.4 |
| 20260510071309 | 75 | 242 | 0.0 | 1.0 | 0.00 | 0.00 | 0.00 | 32 | 1012.4 |
| 20260510070808 | 74 | 149 | 1.0 | 1.0 | 0.00 | 0.00 | 0.00 | 32 | 1012.4 |
| 20260510070304 | 75 | 212 | 0.0 | 0.0 | 0.00 | 0.00 | 0.00 | 32 | 1012.2 |
| 20260510065804 | 75 | 239 | 0.0 | 1.0 | 0.00 | 0.00 | 0.00 | 31 | 1012.3 |
| 20260510065301 | 75 | 89 | 0.0 | 1.0 | 0.00 | 0.00 | 0.00 | 31 | 1012.4 |
| 20260510064758 | 75 | 345 | 1.0 | 1.0 | 0.00 | 0.00 | 0.00 | 30 | 1012.1 |
| 20260510064256 | 74 | 266 | 1.0 | 2.0 | 0.00 | 0.00 | 0.00 | 29 | 1012.2 |
| 20260510063751 | 75 | 232 | 0.0 | 2.0 | 0.00 | 0.00 | 0.00 | 29 | 1012.3 |
| 20260510063248 | 75 | 283 | 0.0 | 2.0 | 0.00 | 0.00 | 0.00 | 29 | 1012.1 |
| 20260510062744 | 75 | 191 | 0.0 | 2.0 | 0.00 | 0.00 | 0.00 | 30 | 1012.2 |
| 20260510062240 | 75 | 254 | 0.0 | 2.0 | 0.00 | 0.00 | 0.00 | 29 | 1012.3 |
| 20260510061736 | 76 | 258 | 2.0 | 2.0 | 0.00 | 0.00 | 0.00 | 28 | 1012.3 |
| 20260510061233 | 77 | 255 | 0.0 | 2.0 | 0.00 | 0.00 | 0.00 | 28 | 1012.3 |
| 20260510060729 | 77 | 219 | 1.0 | 1.0 | 0.00 | 0.00 | 0.00 | 27 | 1012.4 |
| 20260510060226 | 78 | 29 | 0.0 | 1.0 | 0.00 | 0.00 | 0.00 | 27 | 1012.4 |
| 20260510055723 | 79 | 341 | 1.0 | 2.0 | 0.00 | 0.00 | 0.00 | 27 | 1012.3 |
| 20260510055221 | 79 | 227 | 1.0 | 2.0 | 0.00 | 0.00 | 0.00 | 27 | 1012.1 |
| 20260510054721 | 80 | 192 | 1.0 | 2.0 | 0.00 | 0.00 | 0.00 | 26 | 1012.2 |
| 20260510054217 | 80 | 227 | 0.0 | 2.0 | 0.00 | 0.00 | 0.00 | 27 | 1012.2 |
| 20260510053711 | 81 | 102 | 1.0 | 3.0 | 0.00 | 0.00 | 0.00 | 27 | 1012.0 |
| 20260510053208 | 80 | 205 | 0.0 | 2.0 | 0.00 | 0.00 | 0.00 | 28 | 1012.1 |
| 20260510052704 | 80 | 212 | 2.0 | 2.0 | 0.00 | 0.00 | 0.00 | 29 | 1012.0 |
| 20260510052200 | 80 | 182 | 0.0 | 2.0 | 0.00 | 0.00 | 0.00 | 28 | 1012.1 |
| 20260510051656 | 81 | 205 | 0.0 | 2.0 | 0.00 | 0.00 | 0.00 | 28 | 1012.1 |
| 20260510051153 | 83 | 76 | 1.0 | 3.0 | 0.00 | 0.00 | 0.00 | 27 | 1012.1 |
| 20260510050650 | 83 | 126 | 2.0 | 2.0 | 0.00 | 0.00 | 0.00 | 26 | 1012.0 |
| 20260510050147 | 84 | 118 | 1.0 | 1.0 | 0.00 | 0.00 | 0.00 | 26 | 1011.8 |
| 20260510045643 | 84 | 231 | 1.0 | 3.0 | 0.00 | 0.00 | 0.00 | 25 | 1011.8 |
| 20260510045140 | 85 | 263 | 0.0 | 3.0 | 0.00 | 0.00 | 0.00 | 24 | 1011.8 |
| 20260510044636 | 86 | 192 | 1.0 | 2.0 | 0.00 | 0.00 | 0.00 | 23 | 1011.8 |
| 20260510044134 | 87 | 250 | 1.0 | 2.0 | 0.00 | 0.00 | 0.00 | 22 | 1011.8 |
| 20260510043630 | 88 | 217 | 0.0 | 4.0 | 0.00 | 0.00 | 0.00 | 20 | 1011.8 |
| 20260510043126 | 89 | 308 | 0.0 | 4.0 | 0.00 | 0.00 | 0.00 | 19 | 1011.7 |
| 20260510042624 | 89 | 99 | 6.0 | 11.0 | 0.00 | 0.00 | 0.00 | 17 | 1011.5 |
| 20260510042119 | 88 | 116 | 1.0 | 5.0 | 0.00 | 0.00 | 0.00 | 21 | 1011.5 |
| 20260510041617 | 88 | 89 | 2.0 | 4.0 | 0.00 | 0.00 | 0.00 | 20 | 1011.7 |
| 20260510041114 | 89 | 244 | 0.0 | 2.0 | 0.00 | 0.00 | 0.00 | 20 | 1011.5 |
| 20260510040612 | 90 | 228 | 3.0 | 4.0 | 0.00 | 0.00 | 0.00 | 19 | 1011.5 |
| 20260510040108 | 90 | 313 | 0.0 | 6.0 | 0.00 | 0.00 | 0.00 | 18 | 1011.4 |
| 20260510035604 | 89 | 276 | 2.0 | 2.0 | 0.00 | 0.00 | 0.00 | 20 | 1011.4 |
| 20260510035103 | 89 | 65 | 1.0 | 3.0 | 0.00 | 0.00 | 0.00 | 20 | 1011.4 |
| 20260510034601 | 90 | 269 | 0.0 | 2.0 | 0.00 | 0.00 | 0.00 | 20 | 1011.4 |
| 20260510034059 | 90 | 282 | 4.0 | 5.0 | 0.00 | 0.00 | 0.00 | 19 | 1011.3 |
| 20260510033554 | 91 | 135 | 0.0 | 2.0 | 0.00 | 0.00 | 0.00 | 19 | 1011.0 |
| 20260510033052 | 89 | 226 | 2.0 | 5.0 | 0.00 | 0.00 | 0.00 | 20 | 1011.0 |
| 20260510032549 | 89 | 253 | 3.0 | 4.0 | 0.00 | 0.00 | 0.00 | 20 | 1010.9 |
| 20260510032044 | 90 | 303 | 0.0 | 2.0 | 0.00 | 0.00 | 0.00 | 20 | 1010.8 |
| 20260510031544 | 91 | 357 | 2.0 | 4.0 | 0.00 | 0.00 | 0.00 | 19 | 1010.7 |
| 20260510031041 | 91 | 251 | 2.0 | 4.0 | 0.00 | 0.00 | 0.00 | 20 | 1010.4 |
| 20260510030536 | 91 | 129 | 2.0 | 3.0 | 0.00 | 0.00 | 0.00 | 18 | 1010.3 |
| 20260510030034 | 92 | 354 | 1.0 | 2.0 | 0.00 | 0.00 | 0.00 | 17 | 1010.3 |
| 20260510025531 | 93 | 12 | 2.0 | 4.0 | 0.00 | 0.00 | 0.00 | 16 | 1010.4 |
| 20260510025028 | 93 | 260 | 9.0 | 9.0 | 0.00 | 0.00 | 0.00 | 16 | 1010.2 |
| 20260510024525 | 93 | 242 | 8.0 | 12.0 | 0.00 | 0.00 | 0.00 | 17 | 1010.2 |
| 20260510024021 | 93 | 243 | 4.0 | 9.0 | 0.00 | 0.00 | 0.00 | 17 | 1010.0 |
| 20260510023517 | 94 | 263 | 5.0 | 11.0 | 0.00 | 0.00 | 0.00 | 17 | 1009.9 |
| 20260510023015 | 93 | 259 | 4.0 | 9.0 | 0.00 | 0.00 | 0.00 | 18 | 1010.1 |
| 20260510022514 | 93 | 274 | 6.0 | 13.0 | 0.00 | 0.00 | 0.00 | 17 | 1009.9 |
| 20260510022014 | 93 | 262 | 6.0 | 11.0 | 0.00 | 0.00 | 0.00 | 18 | 1010.0 |
| 20260510021511 | 93 | 257 | 9.0 | 15.0 | 0.00 | 0.00 | 0.00 | 18 | 1009.8 |
| 20260510021008 | 93 | 244 | 5.0 | 9.0 | 0.00 | 0.00 | 0.00 | 19 | 1009.9 |
| 20260510020502 | 94 | 237 | 5.0 | 13.0 | 0.00 | 0.00 | 0.00 | 19 | 1009.8 |
| 20260510015958 | 94 | 255 | 4.0 | 14.0 | 0.00 | 0.00 | 0.00 | 19 | 1009.9 |
| 20260510015454 | 94 | 249 | 12.0 | 13.0 | 0.00 | 0.00 | 0.00 | 19 | 1009.7 |
| 20260510014949 | 94 | 254 | 11.0 | 14.0 | 0.00 | 0.00 | 0.00 | 20 | 1009.9 |
| 20260510014447 | 94 | 248 | 9.0 | 13.0 | 0.00 | 0.00 | 0.00 | 20 | 1009.7 |
| 20260510013944 | 94 | 299 | 6.0 | 15.0 | 0.00 | 0.00 | 0.00 | 21 | 1009.8 |
| 20260510013438 | 95 | 277 | 11.0 | 17.0 | 0.00 | 0.00 | 0.00 | 19 | 1009.6 |
| 20260510012934 | 95 | 280 | 7.0 | 14.0 | 0.00 | 0.00 | 0.00 | 20 | 1009.6 |
| 20260510012429 | 96 | 255 | 8.0 | 17.0 | 0.00 | 0.00 | 0.00 | 20 | 1009.7 |
| 20260510011924 | 98 | 253 | 11.0 | 13.0 | 0.00 | 0.00 | 0.00 | 19 | 1009.8 |
| 20260510011419 | 98 | 271 | 5.0 | 15.0 | 0.00 | 0.00 | 0.00 | 18 | 1009.7 |
| 20260510010916 | 99 | 322 | 7.0 | 15.0 | 0.00 | 0.00 | 0.00 | 18 | 1009.8 |
| 20260510010413 | 100 | 291 | 3.0 | 9.0 | 0.00 | 0.00 | 0.00 | 17 | 1009.8 |
| 20260510005910 | 100 | 253 | 5.0 | 13.0 | 0.00 | 0.00 | 0.00 | 17 | 1009.7 |
| 20260510005406 | 100 | 301 | 11.0 | 12.0 | 0.00 | 0.00 | 0.00 | 17 | 1009.7 |
| 20260510004903 | 100 | 310 | 8.0 | 16.0 | 0.00 | 0.00 | 0.00 | 16 | 1009.4 |
| 20260510004401 | 102 | 301 | 9.0 | 12.0 | 0.00 | 0.00 | 0.00 | 15 | 1009.4 |
| 20260510003858 | 101 | 332 | 11.0 | 13.0 | 0.00 | 0.00 | 0.00 | 15 | 1009.6 |
| 20260510003355 | 102 | 304 | 9.0 | 11.0 | 0.00 | 0.00 | 0.00 | 15 | 1009.4 |
| 20260510002854 | 102 | 298 | 9.0 | 13.0 | 0.00 | 0.00 | 0.00 | 15 | 1009.5 |
| 20260510002352 | 102 | 259 | 8.0 | 11.0 | 0.00 | 0.00 | 0.00 | 15 | 1009.5 |
| 20260510001848 | 103 | 261 | 11.0 | 12.0 | 0.00 | 0.00 | 0.00 | 14 | 1009.6 |
| 20260510001346 | 102 | 314 | 4.0 | 11.0 | 0.00 | 0.00 | 0.00 | 14 | 1009.6 |
| 20260510000842 | 103 | 317 | 7.0 | 9.0 | 0.00 | 0.00 | 0.00 | 14 | 1009.6 |
| 20260510000341 | 103 | 309 | 6.0 | 9.0 | 0.00 | 0.00 | 0.00 | 14 | 1009.5 |
| 20260509235836 | 103 | 303 | 4.0 | 10.0 | 0.00 | 0.00 | 0.00 | 14 | 1009.7 |
| 20260509235332 | 103 | 312 | 6.0 | 12.0 | 0.00 | 0.00 | 0.00 | 14 | 1009.6 |
| 20260509234828 | 104 | 246 | 7.0 | 11.0 | 0.00 | 0.00 | 0.00 | 14 | 1009.8 |
| 20260509234325 | 104 | 261 | 7.0 | 10.0 | 0.00 | 0.00 | 0.00 | 11 | 1009.8 |
| 20260509233824 | 105 | 280 | 5.0 | 11.0 | 0.00 | 0.00 | 0.00 | 13 | 1009.8 |
| 20260509233321 | 104 | 255 | 8.0 | 14.0 | 0.00 | 0.00 | 0.00 | 12 | 1009.7 |
| 20260509232816 | 104 | 256 | 7.0 | 10.0 | 0.00 | 0.00 | 0.00 | 12 | 1009.6 |
| 20260509232314 | 104 | 264 | 6.0 | 15.0 | 0.00 | 0.00 | 0.00 | 12 | 1009.6 |
| 20260509231810 | 104 | 256 | 7.0 | 15.0 | 0.00 | 0.00 | 0.00 | 11 | 1009.7 |
| 20260509231307 | 104 | 249 | 9.0 | 16.0 | 0.00 | 0.00 | 0.00 | 11 | 1009.9 |
| 20260509230805 | 104 | 251 | 8.0 | 12.0 | 0.00 | 0.00 | 0.00 | 11 | 1009.9 |
| 20260509230302 | 105 | 251 | 6.0 | 13.0 | 0.00 | 0.00 | 0.00 | 10 | 1009.9 |
| 20260509225756 | 105 | 246 | 8.0 | 12.0 | 0.00 | 0.00 | 0.00 | 10 | 1009.9 |
| 20260509225253 | 105 | 247 | 11.0 | 15.0 | 0.00 | 0.00 | 0.00 | 11 | 1010.1 |
| 20260509224749 | 104 | 243 | 10.0 | 15.0 | 0.00 | 0.00 | 0.00 | 10 | 1010.1 |
| 20260509224247 | 104 | 245 | 10.0 | 14.0 | 0.00 | 0.00 | 0.00 | 10 | 1010.0 |
| 20260509223743 | 105 | 243 | 6.0 | 12.0 | 0.00 | 0.00 | 0.00 | 11 | 1010.0 |
| 20260509223240 | 105 | 240 | 7.0 | 14.0 | 0.00 | 0.00 | 0.00 | 10 | 1010.2 |
| 20260509222737 | 105 | 260 | 9.0 | 14.0 | 0.00 | 0.00 | 0.00 | 11 | 1010.2 |
| 20260509222232 | 105 | 315 | 7.0 | 11.0 | 0.00 | 0.00 | 0.00 | 11 | 1010.1 |
| 20260509221728 | 105 | 311 | 5.0 | 6.0 | 0.00 | 0.00 | 0.00 | 10 | 1010.2 |
| 20260509221224 | 106 | 226 | 3.0 | 10.0 | 0.00 | 0.00 | 0.00 | 10 | 1010.4 |
| 20260509220720 | 105 | 226 | 6.0 | 15.0 | 0.00 | 0.00 | 0.00 | 10 | 1010.5 |
| 20260509220217 | 107 | 188 | 1.0 | 10.0 | 0.00 | 0.00 | 0.00 | 10 | 1010.4 |
| 20260509215713 | 107 | 202 | 3.0 | 7.0 | 0.00 | 0.00 | 0.00 | 10 | 1010.7 |
| 20260509215209 | 104 | 113 | 3.0 | 7.0 | 0.00 | 0.00 | 0.00 | 9 | 1010.5 |
| 20260509214707 | 104 | 5 | 1.0 | 4.0 | 0.00 | 0.00 | 0.00 | 10 | 1010.7 |
| 20260509214204 | 105 | 133 | 4.0 | 5.0 | 0.00 | 0.00 | 0.00 | 9 | 1010.8 |
| 20260509213701 | 105 | 127 | 6.0 | 7.0 | 0.00 | 0.00 | 0.00 | 9 | 1010.8 |
| 20260509213156 | 105 | 149 | 2.0 | 5.0 | 0.00 | 0.00 | 0.00 | 9 | 1010.9 |
| 20260509212653 | 105 | 107 | 3.0 | 6.0 | 0.00 | 0.00 | 0.00 | 9 | 1011.0 |
| 20260509212151 | 104 | 74 | 2.0 | 5.0 | 0.00 | 0.00 | 0.00 | 9 | 1011.0 |
| 20260509211646 | 105 | 88 | 2.0 | 7.0 | 0.00 | 0.00 | 0.00 | 9 | 1011.1 |
| 20260509211143 | 105 | 44 | 2.0 | 4.0 | 0.00 | 0.00 | 0.00 | 9 | 1011.3 |
| 20260509210640 | 104 | 126 | 3.0 | 6.0 | 0.00 | 0.00 | 0.00 | 8 | 1011.4 |
| 20260509210137 | 104 | 40 | 2.0 | 5.0 | 0.00 | 0.00 | 0.00 | 8 | 1011.4 |
| 20260509205632 | 103 | 56 | 2.0 | 6.0 | 0.00 | 0.00 | 0.00 | 9 | 1011.4 |
| 20260509205127 | 104 | 89 | 3.0 | 8.0 | 0.00 | 0.00 | 0.00 | 8 | 1011.5 |
| 20260509204623 | 104 | 112 | 2.0 | 5.0 | 0.00 | 0.00 | 0.00 | 8 | 1011.5 |
| 20260509204120 | 103 | 299 | 2.0 | 3.0 | 0.00 | 0.00 | 0.00 | 8 | 1011.7 |
| 20260509203615 | 102 | 123 | 2.0 | 9.0 | 0.00 | 0.00 | 0.00 | 8 | 1011.7 |
| 20260509203109 | 104 | 182 | 1.0 | 4.0 | 0.00 | 0.00 | 0.00 | 8 | 1011.8 |
| 20260509202608 | 103 | 125 | 1.0 | 7.0 | 0.00 | 0.00 | 0.00 | 8 | 1012.2 |
| 20260509202104 | 101 | 118 | 4.0 | 5.0 | 0.00 | 0.00 | 0.00 | 8 | 1012.1 |
| 20260509201604 | 103 | 105 | 4.0 | 4.0 | 0.00 | 0.00 | 0.00 | 8 | 1012.2 |
| 20260509201103 | 103 | 132 | 5.0 | 5.0 | 0.00 | 0.00 | 0.00 | 8 | 1012.2 |
| 20260509200602 | 102 | 323 | 0.0 | 4.0 | 0.00 | 0.00 | 0.00 | 9 | 1012.2 |
| 20260509200053 | 100 | 238 | 3.0 | 4.0 | 0.00 | 0.00 | 0.00 | 9 | 1012.4 |
| 20260509195549 | 102 | 17 | 2.0 | 5.0 | 0.00 | 0.00 | 0.00 | 8 | 1012.4 |
| 20260509195043 | 101 | 235 | 0.0 | 4.0 | 0.00 | 0.00 | 0.00 | 8 | 1012.4 |
| 20260509194538 | 101 | 100 | 3.0 | 5.0 | 0.00 | 0.00 | 0.00 | 8 | 1012.5 |
| 20260509194037 | 100 | 66 | 0.0 | 4.0 | 0.00 | 0.00 | 0.00 | 8 | 1012.7 |
| 20260509193536 | 101 | 234 | 1.0 | 5.0 | 0.00 | 0.00 | 0.00 | 8 | 1012.7 |
| 20260509193033 | 100 | 122 | 3.0 | 4.0 | 0.00 | 0.00 | 0.00 | 8 | 1012.8 |
| 20260509192529 | 100 | 114 | 3.0 | 8.0 | 0.00 | 0.00 | 0.00 | 8 | 1012.8 |
| 20260509192025 | 100 | 29 | 1.0 | 4.0 | 0.00 | 0.00 | 0.00 | 9 | 1012.8 |
| 20260509191519 | 100 | 103 | 6.0 | 6.0 | 0.00 | 0.00 | 0.00 | 8 | 1012.9 |
| 20260509191015 | 100 | 119 | 7.0 | 8.0 | 0.00 | 0.00 | 0.00 | 8 | 1013.0 |
| 20260509190512 | 99 | 116 | 4.0 | 6.0 | 0.00 | 0.00 | 0.00 | 8 | 1013.0 |
| 20260509190010 | 100 | 81 | 2.0 | 7.0 | 0.00 | 0.00 | 0.00 | 9 | 1012.9 |
| 20260509185507 | 100 | 227 | 4.0 | 5.0 | 0.00 | 0.00 | 0.00 | 8 | 1013.0 |
| 20260509185003 | 100 | 190 | 1.0 | 3.0 | 0.00 | 0.00 | 0.00 | 8 | 1013.0 |
| 20260509184502 | 100 | 167 | 1.0 | 2.0 | 0.00 | 0.00 | 0.00 | 8 | 1013.2 |
| 20260509183958 | 99 | 104 | 2.0 | 4.0 | 0.00 | 0.00 | 0.00 | 8 | 1013.2 |
| 20260509183452 | 98 | 73 | 2.0 | 7.0 | 0.00 | 0.00 | 0.00 | 9 | 1013.3 |
| 20260509182949 | 99 | 226 | 0.0 | 5.0 | 0.00 | 0.00 | 0.00 | 8 | 1013.3 |
| 20260509182445 | 99 | 145 | 3.0 | 4.0 | 0.00 | 0.00 | 0.00 | 8 | 1013.4 |
| 20260509181943 | 100 | 195 | 1.0 | 4.0 | 0.00 | 0.00 | 0.00 | 8 | 1013.3 |
| 20260509181441 | 98 | 290 | 2.0 | 3.0 | 0.00 | 0.00 | 0.00 | 9 | 1013.7 |
| 20260509180938 | 98 | 193 | 2.0 | 3.0 | 0.00 | 0.00 | 0.00 | 8 | 1013.6 |
| 20260509180433 | 97 | 120 | 4.0 | 6.0 | 0.00 | 0.00 | 0.00 | 9 | 1013.7 |
| 20260509175931 | 97 | 173 | 0.0 | 4.0 | 0.00 | 0.00 | 0.00 | 9 | 1013.5 |
| 20260509175427 | 96 | 197 | 0.0 | 4.0 | 0.00 | 0.00 | 0.00 | 9 | 1013.7 |
| 20260509174923 | 96 | 124 | 2.0 | 4.0 | 0.00 | 0.00 | 0.00 | 8 | 1013.6 |
| 20260509174419 | 96 | 98 | 3.0 | 5.0 | 0.00 | 0.00 | 0.00 | 10 | 1013.7 |
| 20260509173915 | 97 | 124 | 3.0 | 5.0 | 0.00 | 0.00 | 0.00 | 9 | 1013.5 |
| 20260509173410 | 97 | 78 | 4.0 | 6.0 | 0.00 | 0.00 | 0.00 | 10 | 1013.7 |
| 20260509172906 | 95 | 33 | 1.0 | 3.0 | 0.00 | 0.00 | 0.00 | 11 | 1013.8 |
| 20260509172403 | 95 | 119 | 3.0 | 9.0 | 0.00 | 0.00 | 0.00 | 11 | 1013.6 |
| 20260509171858 | 95 | 304 | 0.0 | 3.0 | 0.00 | 0.00 | 0.00 | 11 | 1013.6 |
| 20260509171354 | 94 | 103 | 0.0 | 5.0 | 0.00 | 0.00 | 0.00 | 10 | 1013.6 |
| 20260509170846 | 95 | 82 | 2.0 | 4.0 | 0.00 | 0.00 | 0.00 | 11 | 1013.5 |
| 20260509170341 | 95 | 93 | 3.0 | 3.0 | 0.00 | 0.00 | 0.00 | 11 | 1013.7 |
| 20260509165836 | 95 | 67 | 3.0 | 4.0 | 0.00 | 0.00 | 0.00 | 10 | 1013.6 |
| 20260509165330 | 95 | 341 | 0.0 | 4.0 | 0.00 | 0.00 | 0.00 | 12 | 1013.5 |
| 20260509164827 | 95 | 124 | 2.0 | 3.0 | 0.00 | 0.00 | 0.00 | 11 | 1013.5 |
| 20260509164323 | 95 | 114 | 2.0 | 2.0 | 0.00 | 0.00 | 0.00 | 11 | 1013.4 |
| 20260509163820 | 94 | 191 | 0.0 | 2.0 | 0.00 | 0.00 | 0.00 | 11 | 1013.5 |
| 20260509163317 | 94 | 21 | 1.0 | 4.0 | 0.00 | 0.00 | 0.00 | 12 | 1013.6 |
| 20260509162816 | 94 | 343 | 2.0 | 2.0 | 0.00 | 0.00 | 0.00 | 12 | 1013.6 |
| 20260509162314 | 92 | 257 | 1.0 | 2.0 | 0.00 | 0.00 | 0.00 | 11 | 1013.5 |
| 20260509161811 | 94 | 84 | 2.0 | 3.0 | 0.00 | 0.00 | 0.00 | 11 | 1013.6 |
| 20260509161307 | 93 | 278 | 2.0 | 2.0 | 0.00 | 0.00 | 0.00 | 12 | 1013.5 |
| 20260509160802 | 93 | 161 | 0.0 | 1.0 | 0.00 | 0.00 | 0.00 | 12 | 1013.4 |
| 20260509160259 | 91 | 46 | 0.0 | 4.0 | 0.00 | 0.00 | 0.00 | 13 | 1013.5 |
| 20260509155754 | 92 | 110 | 0.0 | 3.0 | 0.00 | 0.00 | 0.00 | 13 | 1013.5 |
| 20260509155251 | 92 | 338 | 2.0 | 3.0 | 0.00 | 0.00 | 0.00 | 13 | 1013.4 |
| 20260509154747 | 92 | 87 | 2.0 | 2.0 | 0.00 | 0.00 | 0.00 | 12 | 1013.5 |
| 20260509154244 | 91 | 11 | 0.0 | 2.0 | 0.00 | 0.00 | 0.00 | 12 | 1013.6 |
| 20260509153741 | 91 | 3 | 0.0 | 2.0 | 0.00 | 0.00 | 0.00 | 14 | 1013.3 |
| 20260509153237 | 92 | 110 | 0.0 | 1.0 | 0.00 | 0.00 | 0.00 | 14 | 1013.5 |
| 20260509152734 | 90 | 113 | 0.0 | 2.0 | 0.00 | 0.00 | 0.00 | 14 | 1013.5 |
| 20260509152230 | 92 | 6 | 0.0 | 2.0 | 0.00 | 0.00 | 0.00 | 16 | 1013.5 |
| 20260509151727 | 90 | 73 | 0.0 | 2.0 | 0.00 | 0.00 | 0.00 | 15 | 1013.6 |
| 20260509151224 | 88 | 84 | 2.0 | 2.0 | 0.00 | 0.00 | 0.00 | 16 | 1013.5 |
| 20260509150722 | 88 | 33 | 0.0 | 2.0 | 0.00 | 0.00 | 0.00 | 19 | 1013.6 |
| 20260509150220 | 87 | 349 | 0.0 | 2.0 | 0.00 | 0.00 | 0.00 | 17 | 1013.3 |
| 20260509145716 | 87 | 359 | 2.0 | 3.0 | 0.00 | 0.00 | 0.00 | 18 | 1013.3 |
| 20260509145211 | 87 | 328 | 2.0 | 2.0 | 0.00 | 0.00 | 0.00 | 16 | 1013.4 |
| 20260509144708 | 89 | 34 | 0.0 | 2.0 | 0.00 | 0.00 | 0.00 | 15 | 1013.4 |
| 20260509144205 | 86 | 67 | 0.0 | 1.0 | 0.00 | 0.00 | 0.00 | 16 | 1013.3 |
| 20260509143702 | 85 | 34 | 1.0 | 2.0 | 0.00 | 0.00 | 0.00 | 16 | 1013.4 |
| 20260509143159 | 84 | 75 | 1.0 | 2.0 | 0.00 | 0.00 | 0.00 | 16 | 1013.2 |
| 20260509142655 | 84 | 94 | 2.0 | 3.0 | 0.00 | 0.00 | 0.00 | 15 | 1013.4 |
| 20260509142152 | 84 | 58 | 0.0 | 2.0 | 0.00 | 0.00 | 0.00 | 14 | 1013.2 |
| 20260509141647 | 82 | 125 | 0.0 | 1.0 | 0.00 | 0.00 | 0.00 | 15 | 1013.1 |
| 20260509141144 | 80 | 140 | 0.0 | 1.0 | 0.00 | 0.00 | 0.00 | 18 | 1013.0 |
| 20260509140641 | 79 | 174 | 0.0 | 1.0 | 0.00 | 0.00 | 0.00 | 19 | 1012.9 |
| 20260509140139 | 78 | 224 | 0.0 | 1.0 | 0.00 | 0.00 | 0.00 | 19 | 1012.9 |
| 20260509135636 | 76 | 304 | 0.0 | 1.0 | 0.00 | 0.00 | 0.00 | 19 | 1012.9 |
| 20260509135134 | 75 | 226 | 2.0 | 2.0 | 0.00 | 0.00 | 0.00 | 18 | 1012.8 |
| 20260509134630 | 73 | 278 | 2.0 | 3.0 | 0.00 | 0.00 | 0.00 | 17 | 1013.1 |
| 20260509134128 | 72 | 205 | 2.0 | 2.0 | 0.00 | 0.00 | 0.00 | 17 | 1013.0 |
| 20260509133625 | 70 | 197 | 0.0 | 2.0 | 0.00 | 0.00 | 0.00 | 17 | 1013.0 |
| 20260509133122 | 70 | 198 | 2.0 | 2.0 | 0.00 | 0.00 | 0.00 | 18 | 1012.9 |
| 20260509132620 | 68 | 301 | 0.0 | 2.0 | 0.00 | 0.00 | 0.00 | 17 | 1012.7 |
| 20260509132118 | 67 | 249 | 1.0 | 2.0 | 0.00 | 0.00 | 0.00 | 19 | 1012.7 |
| 20260509131614 | 67 | 222 | 1.0 | 2.0 | 0.00 | 0.00 | 0.00 | 20 | 1012.7 |
| 20260509131111 | 66 | 301 | 1.0 | 2.0 | 0.00 | 0.00 | 0.00 | 18 | 1012.6 |
| 20260509130607 | 65 | 146 | 0.0 | 2.0 | 0.00 | 0.00 | 0.00 | 20 | 1012.5 |
| 20260509130104 | 66 | 244 | 0.0 | 2.0 | 0.00 | 0.00 | 0.00 | 20 | 1012.4 |
| 20260509125600 | 66 | 165 | 0.0 | 2.0 | 0.00 | 0.00 | 0.00 | 19 | 1012.4 |
| 20260509125057 | 67 | 194 | 1.0 | 2.0 | 0.00 | 0.00 | 0.00 | 18 | 1012.5 |
| 20260509124553 | 68 | 271 | 2.0 | 2.0 | 0.00 | 0.00 | 0.00 | 18 | 1012.4 |
| 20260509124051 | 67 | 269 | 0.0 | 2.0 | 0.00 | 0.00 | 0.00 | 18 | 1012.5 |
| 20260509123549 | 66 | 260 | 1.0 | 2.0 | 0.00 | 0.00 | 0.00 | 19 | 1012.4 |
| 20260509123045 | 66 | 266 | 2.0 | 3.0 | 0.00 | 0.00 | 0.00 | 18 | 1012.4 |
| 20260509122541 | 66 | 199 | 0.0 | 1.0 | 0.00 | 0.00 | 0.00 | 19 | 1012.4 |
| 20260509122038 | 66 | 299 | 0.0 | 2.0 | 0.00 | 0.00 | 0.00 | 19 | 1012.3 |
| 20260509121534 | 68 | 252 | 2.0 | 4.0 | 0.00 | 0.00 | 0.00 | 17 | 1012.1 |
| 20260509121032 | 68 | 279 | 2.0 | 2.0 | 0.00 | 0.00 | 0.00 | 17 | 1012.0 |
| 20260509120531 | 69 | 304 | 2.0 | 2.0 | 0.00 | 0.00 | 0.00 | 16 | 1012.2 |
| 20260509120029 | 69 | 139 | 0.0 | 2.0 | 0.00 | 0.00 | 0.00 | 17 | 1012.0 |
| 20260509115525 | 69 | 215 | 1.0 | 2.0 | 0.00 | 0.00 | 0.00 | 17 | 1012.0 |
| 20260509115023 | 67 | 188 | 1.0 | 2.0 | 0.00 | 0.00 | 0.00 | 18 | 1012.0 |
| 20260509114521 | 68 | 240 | 1.0 | 3.0 | 0.00 | 0.00 | 0.00 | 18 | 1012.0 |
| 20260509114020 | 68 | 194 | 0.0 | 2.0 | 0.00 | 0.00 | 0.00 | 19 | 1011.8 |
| 20260509113517 | 66 | 221 | 0.0 | 2.0 | 0.00 | 0.00 | 0.00 | 20 | 1012.2 |
| 20260509113015 | 66 | 258 | 0.0 | 2.0 | 0.00 | 0.00 | 0.00 | 20 | 1012.2 |
| 20260509112511 | 67 | 202 | 0.0 | 2.0 | 0.00 | 0.00 | 0.00 | 21 | 1012.1 |
| 20260509112008 | 69 | 218 | 0.0 | 2.0 | 0.00 | 0.00 | 0.00 | 22 | 1012.0 |
| 20260509111505 | 68 | 210 | 1.0 | 2.0 | 0.00 | 0.00 | 0.00 | 21 | 1012.1 |
| 20260509111002 | 68 | 197 | 0.0 | 2.0 | 0.00 | 0.00 | 0.00 | 20 | 1012.1 |
| 20260509110459 | 68 | 312 | 2.0 | 2.0 | 0.00 | 0.00 | 0.00 | 20 | 1012.2 |
| 20260509105956 | 66 | 193 | 0.0 | 2.0 | 0.00 | 0.00 | 0.00 | 21 | 1012.1 |
| 20260509105455 | 66 | 246 | 2.0 | 3.0 | 0.00 | 0.00 | 0.00 | 21 | 1012.1 |
| 20260509104951 | 66 | 226 | 2.0 | 4.0 | 0.00 | 0.00 | 0.00 | 21 | 1012.1 |
| 20260509104448 | 67 | 305 | 0.0 | 2.0 | 0.00 | 0.00 | 0.00 | 20 | 1012.2 |
| 20260509103946 | 68 | 218 | 0.0 | 2.0 | 0.00 | 0.00 | 0.00 | 19 | 1012.1 |
| 20260509103443 | 68 | 338 | 0.0 | 4.0 | 0.00 | 0.00 | 0.00 | 19 | 1012.3 |
| 20260509102941 | 68 | 157 | 2.0 | 2.0 | 0.00 | 0.00 | 0.00 | 18 | 1012.1 |
| 20260509102438 | 67 | 229 | 2.0 | 4.0 | 0.00 | 0.00 | 0.00 | 19 | 1012.2 |
| 20260509101934 | 68 | 269 | 0.0 | 2.0 | 0.00 | 0.00 | 0.00 | 20 | 1012.3 |
| 20260509101431 | 68 | 331 | 0.0 | 2.0 | 0.00 | 0.00 | 0.00 | 20 | 1012.2 |
| 20260509100928 | 67 | 196 | 1.0 | 2.0 | 0.00 | 0.00 | 0.00 | 20 | 1011.8 |
| 20260509100425 | 67 | 263 | 1.0 | 2.0 | 0.00 | 0.00 | 0.00 | 20 | 1012.4 |
| 20260509095922 | 67 | 243 | 0.0 | 2.0 | 0.00 | 0.00 | 0.00 | 20 | 1012.3 |
| 20260509095419 | 67 | 245 | 1.0 | 2.0 | 0.00 | 0.00 | 0.00 | 20 | 1012.4 |
| 20260509094916 | 68 | 235 | 2.0 | 2.0 | 0.00 | 0.00 | 0.00 | 21 | 1012.4 |
| 20260509094412 | 69 | 269 | 0.0 | 0.0 | 0.00 | 0.00 | 0.00 | 24 | 1012.4 |
| 20260509093910 | 69 | 196 | 0.0 | 2.0 | 0.00 | 0.00 | 0.00 | 25 | 1012.4 |
| 20260509093407 | 69 | 208 | 0.0 | 2.0 | 0.00 | 0.00 | 0.00 | 26 | 1012.4 |
| 20260509092906 | 68 | 185 | 1.0 | 2.0 | 0.00 | 0.00 | 0.00 | 26 | 1012.4 |
| 20260509092403 | 68 | 177 | 0.0 | 3.0 | 0.00 | 0.00 | 0.00 | 24 | 1012.5 |
| 20260509091901 | 68 | 293 | 1.0 | 2.0 | 0.00 | 0.00 | 0.00 | 23 | 1012.5 |
| 20260509091358 | 69 | 229 | 0.0 | 2.0 | 0.00 | 0.00 | 0.00 | 21 | 1012.6 |
| 20260509090855 | 70 | 233 | 0.0 | 2.0 | 0.00 | 0.00 | 0.00 | 20 | 1012.4 |
| 20260509090352 | 71 | 18 | 2.0 | 3.0 | 0.00 | 0.00 | 0.00 | 19 | 1012.9 |
| 20260509085850 | 72 | 66 | 0.0 | 1.0 | 0.00 | 0.00 | 0.00 | 18 | 1012.7 |
| 20260509085347 | 72 | 284 | 2.0 | 4.0 | 0.00 | 0.00 | 0.00 | 17 | 1012.5 |
| 20260509084843 | 72 | 226 | 0.0 | 2.0 | 0.00 | 0.00 | 0.00 | 17 | 1012.6 |
| 20260509084340 | 73 | 222 | 0.0 | 2.0 | 0.00 | 0.00 | 0.00 | 19 | 1012.7 |
| 20260509083838 | 72 | 147 | 1.0 | 2.0 | 0.00 | 0.00 | 0.00 | 19 | 1012.6 |
| 20260509083334 | 72 | 208 | 0.0 | 2.0 | 0.00 | 0.00 | 0.00 | 18 | 1012.5 |
| 20260509082831 | 73 | 176 | 0.0 | 2.0 | 0.00 | 0.00 | 0.00 | 18 | 1012.7 |
| 20260509082327 | 73 | 133 | 0.0 | 3.0 | 0.00 | 0.00 | 0.00 | 17 | 1012.8 |
| 20260509081825 | 72 | 201 | 0.0 | 2.0 | 0.00 | 0.00 | 0.00 | 17 | 1012.9 |
| 20260509081322 | 72 | 117 | 0.0 | 1.0 | 0.00 | 0.00 | 0.00 | 20 | 1012.7 |
| 20260509080820 | 72 | 244 | 1.0 | 2.0 | 0.00 | 0.00 | 0.00 | 19 | 1012.9 |
| 20260509080318 | 72 | 196 | 1.0 | 2.0 | 0.00 | 0.00 | 0.00 | 19 | 1013.0 |
| 20260509075816 | 71 | 174 | 1.0 | 2.0 | 0.00 | 0.00 | 0.00 | 20 | 1012.8 |
| 20260509075313 | 71 | 149 | 0.0 | 2.0 | 0.00 | 0.00 | 0.00 | 20 | 1013.0 |
| 20260509074809 | 72 | 242 | 0.0 | 1.0 | 0.00 | 0.00 | 0.00 | 21 | 1013.0 |
| 20260509074307 | 73 | 255 | 2.0 | 3.0 | 0.00 | 0.00 | 0.00 | 20 | 1013.0 |
| 20260509073803 | 74 | 298 | 1.0 | 1.0 | 0.00 | 0.00 | 0.00 | 21 | 1013.1 |